Time,TemperatureF,DewpointF,PressureIn,WindDirection,WindDirectionDegrees,WindSpeedMPH,WindSpeedGustMPH,Humidity,HourlyPrecipIn,Conditions,Clouds,dailyrainin,SoftwareType,DateUTC
2013-04-11 00:01:00,48.6,31.8,30.02,NW,321,18.0,20.0,52,0.00,,,0.00,Wunderground v.1.15,2013-04-11 07:01:00,
2013-04-11 00:06:00,48.7,31.8,30.03,NW,314,14.0,22.0,52,0.00,,,0.00,Wunderground v.1.15,2013-04-11 07:06:00,
2013-04-11 00:11:00,48.7,31.8,30.03,NW,320,12.0,22.0,52,0.00,,,0.00,Wunderground v.1.15,2013-04-11 07:11:00,
2013-04-11 00:16:00,48.7,31.8,30.03,WNW,297,10.0,18.0,52,0.00,,,0.00,Wunderground v.1.15,2013-04-11 07:16:00,
2013-04-11 00:21:00,48.7,31.8,30.03,NW,318,8.0,18.0,52,0.00,,,0.00,Wunderground v.1.15,2013-04-11 07:21:00,
2013-04-11 00:26:00,48.5,31.7,30.02,NW,315,16.0,22.0,52,0.00,,,0.00,Wunderground v.1.15,2013-04-11 07:26:00,
2013-04-11 00:31:00,48.5,31.7,30.02,NW,310,17.0,24.0,52,0.00,,,0.00,Wunderground v.1.15,2013-04-11 07:31:00,
2013-04-11 00:36:00,48.7,31.8,30.02,NW,309,20.0,24.0,52,0.00,,,0.00,Wunderground v.1.15,2013-04-11 07:36:00,
2013-04-11 00:41:00,48.6,31.8,30.02,NW,323,18.0,24.0,52,0.00,,,0.00,Wunderground v.1.15,2013-04-11 07:41:00,
2013-04-11 00:46:00,48.8,31.5,30.03,NW,323,15.0,27.0,51,0.00,,,0.00,Wunderground v.1.15,2013-04-11 07:46:00,
2013-04-11 00:51:00,48.8,31.5,30.03,NW,321,23.0,27.0,51,0.00,,,0.00,Wunderground v.1.15,2013-04-11 07:51:00,
2013-04-11 00:56:00,48.9,31.5,30.03,NW,326,16.0,23.0,51,0.00,,,0.00,Wunderground v.1.15,2013-04-11 07:56:00,
2013-04-11 01:01:00,48.9,31.1,30.03,NW,325,19.0,28.0,50,0.00,,,0.00,Wunderground v.1.15,2013-04-11 08:01:00,
2013-04-11 01:06:00,48.7,31.4,30.03,NNW,338,13.0,24.0,51,0.00,,,0.00,Wunderground v.1.15,2013-04-11 08:06:00,
2013-04-11 01:11:00,48.4,31.1,30.03,NW,318,21.0,24.0,51,0.00,,,0.00,Wunderground v.1.15,2013-04-11 08:11:00,
2013-04-11 01:16:00,48.7,30.9,30.03,NNW,327,19.0,26.0,50,0.00,,,0.00,Wunderground v.1.15,2013-04-11 08:16:00,
2013-04-11 01:21:00,48.6,30.8,30.04,NW,318,17.0,26.0,50,0.00,,,0.00,Wunderground v.1.15,2013-04-11 08:21:00,
2013-04-11 01:26:00,48.6,30.8,30.04,NW,325,7.0,18.0,50,0.00,,,0.00,Wunderground v.1.15,2013-04-11 08:26:00,
2013-04-11 01:31:00,48.5,30.2,30.04,NW,311,18.0,19.0,49,0.00,,,0.00,Wunderground v.1.15,2013-04-11 08:31:00,
2013-04-11 01:36:00,48.7,30.4,30.04,NW,321,18.0,25.0,49,0.00,,,0.00,Wunderground v.1.15,2013-04-11 08:36:00,
2013-04-11 01:41:00,48.5,30.7,30.04,NW,325,24.0,26.0,50,0.00,,,0.00,Wunderground v.1.15,2013-04-11 08:41:00,
2013-04-11 01:46:00,48.5,30.7,30.04,NW,325,23.0,29.0,50,0.00,,,0.00,Wunderground v.1.15,2013-04-11 08:46:00,
2013-04-11 01:51:00,48.1,30.8,30.04,NW,321,20.0,29.0,51,0.00,,,0.00,Wunderground v.1.15,2013-04-11 08:51:00,
2013-04-11 01:56:00,47.7,30.9,30.04,NW,313,20.0,24.0,52,0.00,,,0.00,Wunderground v.1.15,2013-04-11 08:56:00,
2013-04-11 02:01:00,47.8,30.5,30.04,NW,326,21.0,25.0,51,0.00,,,0.00,Wunderground v.1.15,2013-04-11 09:01:00,
2013-04-11 02:06:00,47.7,30.0,30.04,NW,311,13.0,24.0,50,0.00,,,0.00,Wunderground v.1.15,2013-04-11 09:06:00,
2013-04-11 02:11:00,47.6,30.3,30.04,NW,311,13.0,24.0,51,0.00,,,0.00,Wunderground v.1.15,2013-04-11 09:11:00,
2013-04-11 02:16:00,47.4,30.2,30.04,NW,311,10.0,16.0,51,0.00,,,0.00,Wunderground v.1.15,2013-04-11 09:16:00,
2013-04-11 02:21:00,47.4,29.7,30.05,WNW,298,8.0,16.0,50,0.00,,,0.00,Wunderground v.1.15,2013-04-11 09:21:00,
2013-04-11 02:26:00,47.3,30.1,30.05,NW,308,8.0,15.0,51,0.00,,,0.00,Wunderground v.1.15,2013-04-11 09:26:00,
2013-04-11 02:31:00,47.0,29.8,30.05,NW,304,10.0,15.0,51,0.00,,,0.00,Wunderground v.1.15,2013-04-11 09:31:00,
2013-04-11 02:36:00,46.8,29.6,30.05,NW,308,13.0,16.0,51,0.00,,,0.00,Wunderground v.1.15,2013-04-11 09:36:00,
2013-04-11 02:41:00,46.7,30.0,30.05,WNW,298,10.0,17.0,52,0.00,,,0.00,Wunderground v.1.15,2013-04-11 09:41:00,
2013-04-11 02:46:00,47.1,29.4,30.06,NW,304,7.0,17.0,50,0.00,,,0.00,Wunderground v.1.15,2013-04-11 09:46:00,
2013-04-11 02:51:00,47.3,29.1,30.06,NW,315,9.0,22.0,49,0.00,,,0.00,Wunderground v.1.15,2013-04-11 09:51:00,
2013-04-11 02:56:00,47.6,28.9,30.06,West,270,4.0,11.0,48,0.00,,,0.00,Wunderground v.1.15,2013-04-11 09:56:00,
2013-04-11 03:01:00,47.6,28.9,30.05,WNW,289,11.0,16.0,48,0.00,,,0.00,Wunderground v.1.15,2013-04-11 10:01:00,
2013-04-11 03:06:00,47.2,29.5,30.06,WNW,300,5.0,13.0,50,0.00,,,0.00,Wunderground v.1.15,2013-04-11 10:06:00,
2013-04-11 03:11:00,47.0,28.8,30.06,NW,313,13.0,13.0,49,0.00,,,0.00,Wunderground v.1.15,2013-04-11 10:11:00,
2013-04-11 03:16:00,47.0,28.8,30.06,NW,306,2.0,9.0,49,0.00,,,0.00,Wunderground v.1.15,2013-04-11 10:16:00,
2013-04-11 03:21:00,47.1,28.9,30.06,WNW,300,4.0,9.0,49,0.00,,,0.00,Wunderground v.1.15,2013-04-11 10:21:00,
2013-04-11 03:26:00,46.9,28.7,30.06,NW,308,12.0,12.0,49,0.00,,,0.00,Wunderground v.1.15,2013-04-11 10:26:00,
2013-04-11 03:31:00,46.5,29.3,30.06,WNW,289,7.0,12.0,51,0.00,,,0.00,Wunderground v.1.15,2013-04-11 10:31:00,
2013-04-11 03:36:00,46.5,29.3,30.05,WNW,290,12.0,16.0,51,0.00,,,0.00,Wunderground v.1.15,2013-04-11 10:36:00,
2013-04-11 03:41:00,47.1,29.4,30.05,NW,304,20.0,25.0,50,0.00,,,0.00,Wunderground v.1.15,2013-04-11 10:41:00,
2013-04-11 03:46:00,47.4,29.7,30.04,WNW,299,26.0,30.0,50,0.00,,,0.00,Wunderground v.1.15,2013-04-11 10:46:00,
2013-04-11 03:51:00,47.3,30.5,30.05,NW,306,20.0,33.0,52,0.00,,,0.00,Wunderground v.1.15,2013-04-11 10:51:00,
2013-04-11 03:56:00,47.2,30.5,30.05,NW,305,20.0,30.0,52,0.00,,,0.00,Wunderground v.1.15,2013-04-11 10:56:00,
2013-04-11 04:01:00,47.9,30.1,30.05,NW,305,22.0,30.0,50,0.00,,,0.00,Wunderground v.1.15,2013-04-11 11:01:00,
2013-04-11 04:06:00,48.0,29.7,30.06,WNW,290,18.0,28.0,49,0.00,,,0.00,Wunderground v.1.15,2013-04-11 11:06:00,
2013-04-11 04:11:00,47.7,30.0,30.06,West,277,15.0,28.0,50,0.00,,,0.00,Wunderground v.1.15,2013-04-11 11:11:00,
2013-04-11 04:16:00,47.2,30.5,30.07,West,281,11.0,19.0,52,0.00,,,0.00,Wunderground v.1.15,2013-04-11 11:16:00,
2013-04-11 04:21:00,46.6,30.8,30.06,West,273,15.0,19.0,54,0.00,,,0.00,Wunderground v.1.15,2013-04-11 11:21:00,
2013-04-11 04:26:00,46.4,31.1,30.07,West,273,8.0,19.0,55,0.00,,,0.00,Wunderground v.1.15,2013-04-11 11:26:00,
2013-04-11 04:31:00,46.3,31.0,30.07,West,265,15.0,19.0,55,0.00,,,0.00,Wunderground v.1.15,2013-04-11 11:31:00,
2013-04-11 04:36:00,46.2,30.9,30.07,West,267,12.0,15.0,55,0.00,,,0.00,Wunderground v.1.15,2013-04-11 11:36:00,
2013-04-11 04:41:00,46.1,31.3,30.07,West,259,9.0,15.0,56,0.00,,,0.00,Wunderground v.1.15,2013-04-11 11:41:00,
2013-04-11 04:46:00,46.1,30.8,30.07,WSW,244,9.0,12.0,55,0.00,,,0.00,Wunderground v.1.15,2013-04-11 11:46:00,
2013-04-11 04:51:00,46.1,30.8,30.07,SW,231,7.0,12.0,55,0.00,,,0.00,Wunderground v.1.15,2013-04-11 11:51:00,
2013-04-11 04:56:00,45.9,31.1,30.07,WSW,246,7.0,9.0,56,0.00,,,0.00,Wunderground v.1.15,2013-04-11 11:56:00,
2013-04-11 05:01:00,46.1,30.4,30.06,WNW,289,7.0,9.0,54,0.00,,,0.00,Wunderground v.1.15,2013-04-11 12:01:00,
2013-04-11 05:06:00,46.6,30.4,30.06,NW,313,6.0,14.0,53,0.00,,,0.00,Wunderground v.1.15,2013-04-11 12:06:00,
2013-04-11 05:11:00,46.7,30.0,30.06,NNW,327,7.0,14.0,52,0.00,,,0.00,Wunderground v.1.15,2013-04-11 12:11:00,
2013-04-11 05:16:00,47.2,30.0,30.06,NW,319,12.0,14.0,51,0.00,,,0.00,Wunderground v.1.15,2013-04-11 12:16:00,
2013-04-11 05:21:00,47.5,30.3,30.07,WNW,288,7.0,16.0,51,0.00,,,0.00,Wunderground v.1.15,2013-04-11 12:21:00,
2013-04-11 05:26:00,47.3,30.5,30.07,West,276,14.0,15.0,52,0.00,,,0.00,Wunderground v.1.15,2013-04-11 12:26:00,
2013-04-11 05:31:00,46.6,30.8,30.06,West,277,18.0,20.0,54,0.00,,,0.00,Wunderground v.1.15,2013-04-11 12:31:00,
2013-04-11 05:36:00,46.8,30.6,30.06,West,275,11.0,20.0,53,0.00,,,0.00,Wunderground v.1.15,2013-04-11 12:36:00,
2013-04-11 05:41:00,46.9,30.2,30.06,WNW,294,8.0,20.0,52,0.00,,,0.00,Wunderground v.1.15,2013-04-11 12:41:00,
2013-04-11 05:46:00,47.0,30.3,30.06,WNW,282,13.0,15.0,52,0.00,,,0.00,Wunderground v.1.15,2013-04-11 12:46:00,
2013-04-11 05:51:00,47.0,30.3,30.06,WNW,287,22.0,22.0,52,0.00,,,0.00,Wunderground v.1.15,2013-04-11 12:51:00,
2013-04-11 05:56:00,46.8,30.6,30.06,West,273,12.0,18.0,53,0.00,,,0.00,Wunderground v.1.15,2013-04-11 12:56:00,
2013-04-11 06:01:00,46.8,30.6,30.06,WSW,257,10.0,20.0,53,0.00,,,0.00,Wunderground v.1.15,2013-04-11 13:01:00,
2013-04-11 06:06:00,46.5,30.7,30.06,WSW,256,10.0,19.0,54,0.00,,,0.00,Wunderground v.1.15,2013-04-11 13:06:00,
2013-04-11 06:11:00,46.3,31.0,30.07,West,272,10.0,19.0,55,0.00,,,0.00,Wunderground v.1.15,2013-04-11 13:11:00,
2013-04-11 06:16:00,46.1,31.3,30.07,West,275,7.0,12.0,56,0.00,,,0.00,Wunderground v.1.15,2013-04-11 13:16:00,
2013-04-11 06:21:00,46.4,30.6,30.07,WNW,297,7.0,15.0,54,0.00,,,0.00,Wunderground v.1.15,2013-04-11 13:21:00,
2013-04-11 06:26:00,47.1,30.4,30.07,WNW,296,9.0,23.0,52,0.00,,,0.00,Wunderground v.1.15,2013-04-11 13:26:00,
2013-04-11 06:31:00,47.0,30.7,30.07,WNW,297,16.0,23.0,53,0.00,,,0.00,Wunderground v.1.15,2013-04-11 13:31:00,
2013-04-11 06:36:00,46.7,30.9,30.07,WNW,294,18.0,19.0,54,0.00,,,0.00,Wunderground v.1.15,2013-04-11 13:36:00,
2013-04-11 06:41:00,46.5,31.2,30.07,WNW,286,16.0,22.0,55,0.00,,,0.00,Wunderground v.1.15,2013-04-11 13:41:00,
2013-04-11 06:46:00,46.4,31.1,30.07,WNW,292,13.0,23.0,55,0.00,,,0.00,Wunderground v.1.15,2013-04-11 13:46:00,
2013-04-11 06:51:00,46.4,31.1,30.07,WNW,284,18.0,23.0,55,0.00,,,0.00,Wunderground v.1.15,2013-04-11 13:51:00,
2013-04-11 06:56:00,46.1,31.3,30.07,West,281,12.0,19.0,56,0.00,,,0.00,Wunderground v.1.15,2013-04-11 13:56:00,
2013-04-11 07:01:00,46.0,31.2,30.08,WNW,290,12.0,19.0,56,0.00,,,0.00,Wunderground v.1.15,2013-04-11 14:01:00,
2013-04-11 07:06:00,46.0,31.2,30.08,WNW,284,10.0,15.0,56,0.00,,,0.00,Wunderground v.1.15,2013-04-11 14:06:00,
2013-04-11 07:11:00,45.9,31.1,30.08,WNW,288,11.0,15.0,56,0.00,,,0.00,Wunderground v.1.15,2013-04-11 14:11:00,
2013-04-11 07:16:00,46.1,31.3,30.08,West,281,4.0,11.0,56,0.00,,,0.00,Wunderground v.1.15,2013-04-11 14:16:00,
2013-04-11 07:21:00,46.1,31.3,30.08,West,274,9.0,11.0,56,0.00,,,0.00,Wunderground v.1.15,2013-04-11 14:21:00,
2013-04-11 07:26:00,46.1,31.3,30.08,West,275,9.0,12.0,56,0.00,,,0.00,Wunderground v.1.15,2013-04-11 14:26:00,
2013-04-11 07:31:00,46.3,31.0,30.08,WNW,284,11.0,13.0,55,0.00,,,0.00,Wunderground v.1.15,2013-04-11 14:31:00,
2013-04-11 07:36:00,46.2,30.9,30.08,WNW,282,13.0,14.0,55,0.00,,,0.00,Wunderground v.1.15,2013-04-11 14:36:00,
2013-04-11 07:41:00,46.2,30.9,30.09,WNW,283,10.0,14.0,55,0.00,,,0.00,Wunderground v.1.15,2013-04-11 14:41:00,
2013-04-11 07:46:00,46.0,31.2,30.09,WNW,284,8.0,10.0,56,0.00,,,0.00,Wunderground v.1.15,2013-04-11 14:46:00,
2013-04-11 07:51:00,45.9,31.1,30.09,WNW,288,6.0,11.0,56,0.00,,,0.00,Wunderground v.1.15,2013-04-11 14:51:00,
2013-04-11 07:56:00,45.8,31.4,30.09,West,278,6.0,10.0,57,0.00,,,0.00,Wunderground v.1.15,2013-04-11 14:56:00,
2013-04-11 08:01:00,45.6,31.2,30.09,West,274,6.0,10.0,57,0.00,,,0.00,Wunderground v.1.15,2013-04-11 15:01:00,
2013-04-11 08:02:00,45.6,31.2,30.09,West,273,5.0,10.0,57,0.00,,,0.00,Wunderground v.1.15,2013-04-11 15:02:00,
2013-04-11 08:07:00,45.6,31.7,30.09,West,264,2.0,9.0,58,0.00,,,0.00,Wunderground v.1.15,2013-04-11 15:07:00,
2013-04-11 08:11:00,45.6,31.7,30.10,WSW,256,4.0,9.0,58,0.00,,,0.00,Wunderground v.1.15,2013-04-11 15:11:00,
2013-04-11 08:16:00,45.8,31.4,30.10,West,260,6.0,9.0,57,0.00,,,0.00,Wunderground v.1.15,2013-04-11 15:16:00,
2013-04-11 08:21:00,46.1,31.3,30.10,West,261,7.0,9.0,56,0.00,,,0.00,Wunderground v.1.15,2013-04-11 15:21:00,
2013-04-11 08:26:00,46.3,31.0,30.10,WSW,253,4.0,8.0,55,0.00,,,0.00,Wunderground v.1.15,2013-04-11 15:26:00,
2013-04-11 08:31:00,46.3,31.4,30.10,WSW,244,7.0,9.0,56,0.00,,,0.00,Wunderground v.1.15,2013-04-11 15:31:00,
2013-04-11 08:36:00,46.2,31.4,30.10,WSW,252,4.0,8.0,56,0.00,,,0.00,Wunderground v.1.15,2013-04-11 15:36:00,
2013-04-11 08:41:00,46.0,31.6,30.10,WSW,254,3.0,8.0,57,0.00,,,0.00,Wunderground v.1.15,2013-04-11 15:41:00,
2013-04-11 08:46:00,45.8,31.9,30.10,WSW,257,7.0,9.0,58,0.00,,,0.00,Wunderground v.1.15,2013-04-11 15:46:00,
2013-04-11 08:51:00,45.9,31.9,30.10,WSW,256,8.0,14.0,58,0.00,,,0.00,Wunderground v.1.15,2013-04-11 15:51:00,
2013-04-11 08:56:00,46.2,31.4,30.10,West,267,9.0,13.0,56,0.00,,,0.00,Wunderground v.1.15,2013-04-11 15:56:00,
2013-04-11 09:01:00,46.4,31.1,30.10,WSW,239,8.0,13.0,55,0.00,,,0.00,Wunderground v.1.15,2013-04-11 16:01:00,
2013-04-11 09:06:00,46.5,31.2,30.10,WSW,247,9.0,10.0,55,0.00,,,0.00,Wunderground v.1.15,2013-04-11 16:06:00,
2013-04-11 09:11:00,46.9,31.1,30.10,SW,223,10.0,15.0,54,0.00,,,0.00,Wunderground v.1.15,2013-04-11 16:11:00,
2013-04-11 09:16:00,46.8,31.5,30.10,SW,228,7.0,10.0,55,0.00,,,0.00,Wunderground v.1.15,2013-04-11 16:16:00,
2013-04-11 09:21:00,47.0,30.7,30.11,SW,236,5.0,10.0,53,0.00,,,0.00,Wunderground v.1.15,2013-04-11 16:21:00,
2013-04-11 09:26:00,47.1,31.3,30.11,SW,231,6.0,10.0,54,0.00,,,0.00,Wunderground v.1.15,2013-04-11 16:26:00,
2013-04-11 09:31:00,47.2,31.4,30.11,WSW,238,11.0,11.0,54,0.00,,,0.00,Wunderground v.1.15,2013-04-11 16:31:00,
2013-04-11 09:36:00,47.2,31.4,30.10,SW,226,8.0,16.0,54,0.00,,,0.00,Wunderground v.1.15,2013-04-11 16:36:00,
2013-04-11 09:41:00,47.3,31.0,30.11,WSW,240,11.0,17.0,53,0.00,,,0.00,Wunderground v.1.15,2013-04-11 16:41:00,
2013-04-11 09:46:00,47.3,31.5,30.11,SW,227,8.0,11.0,54,0.00,,,0.00,Wunderground v.1.15,2013-04-11 16:46:00,
2013-04-11 09:51:00,47.1,30.8,30.11,SW,233,11.0,19.0,53,0.00,,,0.00,Wunderground v.1.15,2013-04-11 16:51:00,
2013-04-11 09:56:00,47.3,31.5,30.11,SW,223,6.0,11.0,54,0.00,,,0.00,Wunderground v.1.15,2013-04-11 16:56:00,
2013-04-11 10:01:00,47.3,31.0,30.11,WSW,242,5.0,18.0,53,0.00,,,0.00,Wunderground v.1.15,2013-04-11 17:01:00,
2013-04-11 10:06:00,47.5,30.7,30.11,SW,236,5.0,16.0,52,0.00,,,0.00,Wunderground v.1.15,2013-04-11 17:06:00,
2013-04-11 10:11:00,47.5,31.2,30.11,WSW,246,7.0,16.0,53,0.00,,,0.00,Wunderground v.1.15,2013-04-11 17:11:00,
2013-04-11 10:16:00,47.4,31.1,30.11,SW,232,10.0,15.0,53,0.00,,,0.00,Wunderground v.1.15,2013-04-11 17:16:00,
2013-04-11 10:21:00,47.5,31.2,30.11,West,259,10.0,15.0,53,0.00,,,0.00,Wunderground v.1.15,2013-04-11 17:21:00,
2013-04-11 10:26:00,47.4,31.6,30.11,West,268,9.0,10.0,54,0.00,,,0.00,Wunderground v.1.15,2013-04-11 17:26:00,
2013-04-11 10:31:00,47.6,30.8,30.10,West,276,13.0,17.0,52,0.00,,,0.00,Wunderground v.1.15,2013-04-11 17:31:00,
2013-04-11 10:36:00,48.0,30.7,30.11,WNW,285,12.0,16.0,51,0.00,,,0.00,Wunderground v.1.15,2013-04-11 17:36:00,
2013-04-11 10:41:00,48.2,30.9,30.11,West,275,7.0,18.0,51,0.00,,,0.00,Wunderground v.1.15,2013-04-11 17:41:00,
2013-04-11 10:46:00,48.0,32.1,30.11,WNW,286,9.0,13.0,54,0.00,,,0.00,Wunderground v.1.15,2013-04-11 17:46:00,
2013-04-11 10:51:00,47.7,32.3,30.11,WSW,254,7.0,13.0,55,0.00,,,0.00,Wunderground v.1.15,2013-04-11 17:51:00,
2013-04-11 10:56:00,47.9,31.1,30.11,WNW,294,12.0,17.0,52,0.00,,,0.00,Wunderground v.1.15,2013-04-11 17:56:00,
2013-04-11 11:01:00,47.7,32.8,30.11,WSW,256,6.0,17.0,56,0.00,,,0.00,Wunderground v.1.15,2013-04-11 18:01:00,
2013-04-11 11:06:00,47.3,32.4,30.11,West,266,14.0,15.0,56,0.00,,,0.00,Wunderground v.1.15,2013-04-11 18:06:00,
2013-04-11 11:11:00,47.3,31.9,30.11,WSW,253,11.0,16.0,55,0.00,,,0.00,Wunderground v.1.15,2013-04-11 18:11:00,
2013-04-11 11:16:00,47.4,32.0,30.11,West,261,11.0,15.0,55,0.00,,,0.00,Wunderground v.1.15,2013-04-11 18:16:00,
2013-04-11 11:21:00,47.6,32.2,30.11,West,264,10.0,17.0,55,0.00,,,0.00,Wunderground v.1.15,2013-04-11 18:21:00,
2013-04-11 11:26:00,47.8,31.9,30.12,WSW,255,12.0,16.0,54,0.00,,,0.00,Wunderground v.1.15,2013-04-11 18:26:00,
2013-04-11 11:31:00,48.0,33.0,30.12,West,275,12.0,16.0,56,0.00,,,0.00,Wunderground v.1.15,2013-04-11 18:31:00,
2013-04-11 11:36:00,48.3,32.9,30.12,West,274,9.0,18.0,55,0.00,,,0.00,Wunderground v.1.15,2013-04-11 18:36:00,
2013-04-11 11:41:00,49.0,31.2,30.11,WNW,291,11.0,19.0,50,0.00,,,0.00,Wunderground v.1.15,2013-04-11 18:41:00,
2013-04-11 11:46:00,49.6,30.2,30.10,West,281,14.0,22.0,47,0.00,,,0.00,Wunderground v.1.15,2013-04-11 18:46:00,
2013-04-11 11:51:00,49.7,29.7,30.10,WNW,296,17.0,22.0,46,0.00,,,0.00,Wunderground v.1.15,2013-04-11 18:51:00,
2013-04-11 11:56:00,49.9,30.5,30.10,WNW,292,12.0,16.0,47,0.00,,,0.00,Wunderground v.1.15,2013-04-11 18:56:00,
2013-04-11 12:01:00,50.0,31.1,30.10,West,276,8.0,16.0,48,0.00,,,0.00,Wunderground v.1.15,2013-04-11 19:01:00,
2013-04-11 12:06:00,50.1,31.2,30.11,WNW,288,8.0,12.0,48,0.00,,,0.00,Wunderground v.1.15,2013-04-11 19:06:00,
2013-04-11 12:11:00,50.5,31.5,30.11,WNW,283,13.0,15.0,48,0.00,,,0.00,Wunderground v.1.15,2013-04-11 19:11:00,
2013-04-11 12:16:00,50.9,31.9,30.11,WNW,297,12.0,14.0,48,0.00,,,0.00,Wunderground v.1.15,2013-04-11 19:16:00,
2013-04-11 12:21:00,51.1,31.6,30.11,NW,304,11.0,19.0,47,0.00,,,0.00,Wunderground v.1.15,2013-04-11 19:21:00,
2013-04-11 12:26:00,51.1,32.1,30.11,NW,310,10.0,15.0,48,0.00,,,0.00,Wunderground v.1.15,2013-04-11 19:26:00,
2013-04-11 12:31:00,51.3,32.8,30.11,WNW,297,12.0,16.0,49,0.00,,,0.00,Wunderground v.1.15,2013-04-11 19:31:00,
2013-04-11 12:36:00,51.2,31.6,30.11,WNW,288,12.0,18.0,47,0.00,,,0.00,Wunderground v.1.15,2013-04-11 19:36:00,
2013-04-11 12:41:00,51.3,32.3,30.10,WSW,253,9.0,18.0,48,0.00,,,0.00,Wunderground v.1.15,2013-04-11 19:41:00,
2013-04-11 12:46:00,51.5,31.9,30.10,WNW,296,10.0,11.0,47,0.00,,,0.00,Wunderground v.1.15,2013-04-11 19:46:00,
2013-04-11 12:51:00,51.5,31.9,30.10,West,275,10.0,13.0,47,0.00,,,0.00,Wunderground v.1.15,2013-04-11 19:51:00,
2013-04-11 12:56:00,51.7,32.1,30.10,West,273,9.0,11.0,47,0.00,,,0.00,Wunderground v.1.15,2013-04-11 19:56:00,
2013-04-11 13:01:00,52.0,31.8,30.09,West,263,8.0,12.0,46,0.00,,,0.00,Wunderground v.1.15,2013-04-11 20:01:00,
2013-04-11 13:06:00,52.3,32.1,30.09,West,277,10.0,14.0,46,0.00,,,0.00,Wunderground v.1.15,2013-04-11 20:06:00,
2013-04-11 13:11:00,52.9,32.1,30.09,WNW,295,6.0,14.0,45,0.00,,,0.00,Wunderground v.1.15,2013-04-11 20:11:00,
2013-04-11 13:16:00,52.9,32.1,30.08,West,269,13.0,13.0,45,0.00,,,0.00,Wunderground v.1.15,2013-04-11 20:16:00,
2013-04-11 13:21:00,52.9,32.1,30.09,WSW,242,14.0,16.0,45,0.00,,,0.00,Wunderground v.1.15,2013-04-11 20:21:00,
2013-04-11 13:26:00,53.2,32.4,30.08,WSW,248,10.0,12.0,45,0.00,,,0.00,Wunderground v.1.15,2013-04-11 20:26:00,
2013-04-11 13:31:00,53.4,30.9,30.08,WSW,248,3.0,14.0,42,0.00,,,0.00,Wunderground v.1.15,2013-04-11 20:31:00,
2013-04-11 13:36:00,54.2,32.7,30.08,West,279,6.0,16.0,44,0.00,,,0.00,Wunderground v.1.15,2013-04-11 20:36:00,
2013-04-11 13:41:00,54.6,28.2,30.08,SSW,213,12.0,17.0,36,0.00,,,0.00,Wunderground v.1.15,2013-04-11 20:41:00,
2013-04-11 13:46:00,54.9,32.8,30.08,SW,225,10.0,11.0,43,0.00,,,0.00,Wunderground v.1.15,2013-04-11 20:46:00,
2013-04-11 13:51:00,55.5,28.3,30.08,West,271,9.0,17.0,35,0.00,,,0.00,Wunderground v.1.15,2013-04-11 20:51:00,
2013-04-11 13:56:00,55.9,26.4,30.08,WSW,252,9.0,20.0,32,0.00,,,0.00,Wunderground v.1.15,2013-04-11 20:56:00,
2013-04-11 14:01:00,56.5,26.2,30.08,West,281,17.0,22.0,31,0.00,,,0.00,Wunderground v.1.15,2013-04-11 21:01:00,
2013-04-11 14:06:00,56.5,27.0,30.08,West,281,20.0,20.0,32,0.00,,,0.00,Wunderground v.1.15,2013-04-11 21:06:00,
2013-04-11 14:11:00,56.7,26.4,30.08,NW,306,17.0,23.0,31,0.00,,,0.00,Wunderground v.1.15,2013-04-11 21:11:00,
2013-04-11 14:16:00,57.0,27.4,30.08,West,271,21.0,25.0,32,0.00,,,0.00,Wunderground v.1.15,2013-04-11 21:16:00,
2013-04-11 14:21:00,57.7,28.8,30.07,WNW,300,9.0,25.0,33,0.00,,,0.00,Wunderground v.1.15,2013-04-11 21:21:00,
2013-04-11 14:26:00,57.7,28.0,30.07,WNW,294,16.0,24.0,32,0.00,,,0.00,Wunderground v.1.15,2013-04-11 21:26:00,
2013-04-11 14:31:00,57.4,26.2,30.07,NW,307,22.0,25.0,30,0.00,,,0.00,Wunderground v.1.15,2013-04-11 21:31:00,
2013-04-11 14:36:00,57.4,25.4,30.07,WNW,299,17.0,24.0,29,0.00,,,0.00,Wunderground v.1.15,2013-04-11 21:36:00,
2013-04-11 14:41:00,57.9,25.8,30.07,West,274,16.0,24.0,29,0.00,,,0.00,Wunderground v.1.15,2013-04-11 21:41:00,
2013-04-11 14:46:00,58.0,25.9,30.07,NW,323,16.0,26.0,29,0.00,,,0.00,Wunderground v.1.15,2013-04-11 21:46:00,
2013-04-11 14:51:00,57.8,25.7,30.07,West,275,20.0,26.0,29,0.00,,,0.00,Wunderground v.1.15,2013-04-11 21:51:00,
2013-04-11 14:56:00,57.5,25.5,30.06,WNW,286,18.0,25.0,29,0.00,,,0.00,Wunderground v.1.15,2013-04-11 21:56:00,
2013-04-11 15:01:00,58.4,25.4,30.06,NW,315,20.0,25.0,28,0.00,,,0.00,Wunderground v.1.15,2013-04-11 22:01:00,
2013-04-11 15:06:00,57.6,23.8,30.06,NW,317,21.0,22.0,27,0.00,,,0.00,Wunderground v.1.15,2013-04-11 22:06:00,
2013-04-11 15:11:00,57.9,26.6,30.06,WNW,290,15.0,23.0,30,0.00,,,0.00,Wunderground v.1.15,2013-04-11 22:11:00,
2013-04-11 15:16:00,57.9,25.8,30.06,WNW,296,18.0,22.0,29,0.00,,,0.00,Wunderground v.1.15,2013-04-11 22:16:00,
2013-04-11 15:21:00,57.6,26.4,30.06,West,281,17.0,24.0,30,0.00,,,0.00,Wunderground v.1.15,2013-04-11 22:21:00,
2013-04-11 15:26:00,57.8,26.5,30.06,WNW,295,20.0,23.0,30,0.00,,,0.00,Wunderground v.1.15,2013-04-11 22:26:00,
2013-04-11 15:31:00,58.0,25.0,30.06,WNW,294,15.0,23.0,28,0.00,,,0.00,Wunderground v.1.15,2013-04-11 22:31:00,
2013-04-11 15:36:00,57.8,24.0,30.06,WNW,290,15.0,21.0,27,0.00,,,0.00,Wunderground v.1.15,2013-04-11 22:36:00,
2013-04-11 15:41:00,57.7,26.4,30.06,NW,312,20.0,26.0,30,0.00,,,0.00,Wunderground v.1.15,2013-04-11 22:41:00,
2013-04-11 15:46:00,57.6,25.5,30.05,NW,304,17.0,22.0,29,0.00,,,0.00,Wunderground v.1.15,2013-04-11 22:46:00,
2013-04-11 15:51:00,58.2,26.1,30.05,West,280,18.0,22.0,29,0.00,,,0.00,Wunderground v.1.15,2013-04-11 22:51:00,
2013-04-11 15:56:00,58.0,23.3,30.05,NW,304,15.0,24.0,26,0.00,,,0.00,Wunderground v.1.15,2013-04-11 22:56:00,
2013-04-11 16:01:00,58.1,24.3,30.05,NW,319,13.0,26.0,27,0.00,,,0.00,Wunderground v.1.15,2013-04-11 23:01:00,
2013-04-11 16:06:00,57.8,24.0,30.05,NW,316,25.0,27.0,27,0.00,,,0.00,Wunderground v.1.15,2013-04-11 23:06:00,
2013-04-11 16:11:00,57.8,24.9,30.05,NW,319,19.0,27.0,28,0.00,,,0.00,Wunderground v.1.15,2013-04-11 23:11:00,
2013-04-11 16:16:00,58.1,26.0,30.05,NW,311,19.0,26.0,29,0.00,,,0.00,Wunderground v.1.15,2013-04-11 23:16:00,
2013-04-11 16:21:00,57.8,23.1,30.05,NW,307,14.0,26.0,26,0.00,,,0.00,Wunderground v.1.15,2013-04-11 23:21:00,
2013-04-11 16:26:00,57.2,23.5,30.05,WNW,288,15.0,27.0,27,0.00,,,0.00,Wunderground v.1.15,2013-04-11 23:26:00,
2013-04-11 16:31:00,57.2,25.2,30.04,NW,310,19.0,27.0,29,0.00,,,0.00,Wunderground v.1.15,2013-04-11 23:31:00,
2013-04-11 16:36:00,57.4,25.4,30.04,WNW,302,18.0,24.0,29,0.00,,,0.00,Wunderground v.1.15,2013-04-11 23:36:00,
2013-04-11 16:41:00,57.6,23.8,30.04,WNW,298,21.0,25.0,27,0.00,,,0.00,Wunderground v.1.15,2013-04-11 23:41:00,
2013-04-11 16:46:00,57.5,23.7,30.04,NW,323,17.0,22.0,27,0.00,,,0.00,Wunderground v.1.15,2013-04-11 23:46:00,
2013-04-11 16:51:00,57.4,21.8,30.04,NW,304,18.0,24.0,25,0.00,,,0.00,Wunderground v.1.15,2013-04-11 23:51:00,
2013-04-11 16:54:00,57.3,22.7,30.03,NW,321,21.0,24.0,26,0.00,,,0.00,Wunderground v.1.15,2013-04-11 23:54:00,
2013-04-11 16:56:00,57.3,22.7,30.03,NW,309,22.0,26.0,26,0.00,,,0.00,Wunderground v.1.15,2013-04-11 23:56:00,
2013-04-11 17:01:00,57.7,24.8,30.04,NW,304,19.0,26.0,28,0.00,,,0.00,Wunderground v.1.15,2013-04-12 00:01:00,
2013-04-11 17:06:00,57.4,21.8,30.04,WNW,290,15.0,24.0,25,0.00,,,0.00,Wunderground v.1.15,2013-04-12 00:06:00,
2013-04-11 17:11:00,57.1,21.6,30.04,NW,315,14.0,26.0,25,0.00,,,0.00,Wunderground v.1.15,2013-04-12 00:11:00,
2013-04-11 17:16:00,57.3,23.6,30.04,WNW,292,17.0,25.0,27,0.00,,,0.00,Wunderground v.1.15,2013-04-12 00:16:00,
2013-04-11 17:21:00,56.8,23.1,30.04,NW,304,16.0,26.0,27,0.00,,,0.00,Wunderground v.1.15,2013-04-12 00:21:00,
2013-04-11 17:26:00,56.9,24.1,30.04,NW,316,14.0,25.0,28,0.00,,,0.00,Wunderground v.1.15,2013-04-12 00:26:00,
2013-04-11 17:31:00,56.6,22.1,30.04,NNW,327,17.0,29.0,26,0.00,,,0.00,Wunderground v.1.15,2013-04-12 00:31:00,
2013-04-11 17:36:00,56.7,25.6,30.04,WNW,292,17.0,21.0,30,0.00,,,0.00,Wunderground v.1.15,2013-04-12 00:36:00,
2013-04-11 17:41:00,56.3,21.8,30.04,WNW,296,23.0,27.0,26,0.00,,,0.00,Wunderground v.1.15,2013-04-12 00:41:00,
2013-04-11 17:46:00,56.2,19.8,30.04,NW,309,21.0,26.0,24,0.00,,,0.00,Wunderground v.1.15,2013-04-12 00:46:00,
2013-04-11 17:51:00,56.3,19.9,30.04,NW,320,26.0,28.0,24,0.00,,,0.00,Wunderground v.1.15,2013-04-12 00:51:00,
2013-04-11 17:56:00,55.9,21.5,30.04,NW,323,14.0,27.0,26,0.00,,,0.00,Wunderground v.1.15,2013-04-12 00:56:00,
2013-04-11 18:01:00,55.9,22.4,30.04,NW,321,16.0,27.0,27,0.00,,,0.00,Wunderground v.1.15,2013-04-12 01:01:00,
2013-04-11 18:06:00,55.6,21.2,30.04,WNW,302,14.0,30.0,26,0.00,,,0.00,Wunderground v.1.15,2013-04-12 01:06:00,
2013-04-11 18:11:00,55.6,20.3,30.04,NW,325,17.0,30.0,25,0.00,,,0.00,Wunderground v.1.15,2013-04-12 01:11:00,
2013-04-11 18:16:00,55.4,20.1,30.04,NW,309,24.0,29.0,25,0.00,,,0.00,Wunderground v.1.15,2013-04-12 01:16:00,
2013-04-11 18:21:00,55.2,21.8,30.04,NW,309,28.0,29.0,27,0.00,,,0.00,Wunderground v.1.15,2013-04-12 01:21:00,
2013-04-11 18:26:00,55.0,19.8,30.03,WNW,301,14.0,28.0,25,0.00,,,0.00,Wunderground v.1.15,2013-04-12 01:26:00,
2013-04-11 18:31:00,54.8,18.6,30.03,NW,317,21.0,28.0,24,0.00,,,0.00,Wunderground v.1.15,2013-04-12 01:31:00,
2013-04-11 18:36:00,54.6,19.4,30.04,NW,317,21.0,29.0,25,0.00,,,0.00,Wunderground v.1.15,2013-04-12 01:36:00,
2013-04-11 18:41:00,54.4,19.3,30.04,NW,321,24.0,29.0,25,0.00,,,0.00,Wunderground v.1.15,2013-04-12 01:41:00,
2013-04-11 18:46:00,54.2,18.1,30.04,NNW,328,21.0,29.0,24,0.00,,,0.00,Wunderground v.1.15,2013-04-12 01:46:00,
2013-04-11 18:51:00,53.9,19.8,30.04,NW,321,17.0,29.0,26,0.00,,,0.00,Wunderground v.1.15,2013-04-12 01:51:00,
2013-04-11 18:56:00,53.5,20.3,30.04,NW,315,19.0,27.0,27,0.00,,,0.00,Wunderground v.1.15,2013-04-12 01:56:00,
2013-04-11 19:01:00,53.0,23.1,30.04,NW,313,18.0,27.0,31,0.00,,,0.00,Wunderground v.1.15,2013-04-12 02:01:00,
2013-04-11 19:06:00,52.5,24.2,30.04,NW,309,11.0,17.0,33,0.00,,,0.00,Wunderground v.1.15,2013-04-12 02:06:00,
2013-04-11 19:11:00,52.2,23.2,30.04,NW,317,12.0,17.0,32,0.00,,,0.00,Wunderground v.1.15,2013-04-12 02:11:00,
2013-04-11 19:16:00,51.9,22.2,30.05,NW,307,17.0,27.0,31,0.00,,,0.00,Wunderground v.1.15,2013-04-12 02:16:00,
2013-04-11 19:21:00,51.5,23.3,30.05,WNW,301,16.0,27.0,33,0.00,,,0.00,Wunderground v.1.15,2013-04-12 02:21:00,
2013-04-11 19:26:00,51.1,23.7,30.05,NW,312,17.0,25.0,34,0.00,,,0.00,Wunderground v.1.15,2013-04-12 02:26:00,
2013-04-11 19:31:00,50.9,23.5,30.05,NW,304,15.0,25.0,34,0.00,,,0.00,Wunderground v.1.15,2013-04-12 02:31:00,
2013-04-11 19:36:00,50.4,22.3,30.05,NW,308,17.0,21.0,33,0.00,,,0.00,Wunderground v.1.15,2013-04-12 02:36:00,
2013-04-11 19:41:00,49.8,22.5,30.05,NW,305,20.0,21.0,34,0.00,,,0.00,Wunderground v.1.15,2013-04-12 02:41:00,
2013-04-11 19:46:00,49.7,21.7,30.05,NW,309,19.0,23.0,33,0.00,,,0.00,Wunderground v.1.15,2013-04-12 02:46:00,
2013-04-11 19:51:00,49.3,22.1,30.05,NW,317,15.0,23.0,34,0.00,,,0.00,Wunderground v.1.15,2013-04-12 02:51:00,
2013-04-11 19:56:00,49.1,21.9,30.05,NW,305,16.0,21.0,34,0.00,,,0.00,Wunderground v.1.15,2013-04-12 02:56:00,
2013-04-11 20:01:00,48.7,22.2,30.05,NW,311,13.0,21.0,35,0.00,,,0.00,Wunderground v.1.15,2013-04-12 03:01:00,
2013-04-11 20:06:00,48.5,23.4,30.05,WNW,303,18.0,19.0,37,0.00,,,0.00,Wunderground v.1.15,2013-04-12 03:06:00,
2013-04-11 20:11:00,48.3,23.2,30.05,NW,307,13.0,19.0,37,0.00,,,0.00,Wunderground v.1.15,2013-04-12 03:11:00,
2013-04-11 20:16:00,48.1,23.7,30.05,WNW,300,15.0,18.0,38,0.00,,,0.00,Wunderground v.1.15,2013-04-12 03:16:00,
2013-04-11 20:21:00,48.0,23.6,30.05,WNW,302,13.0,18.0,38,0.00,,,0.00,Wunderground v.1.15,2013-04-12 03:21:00,
2013-04-11 20:26:00,47.7,23.9,30.06,WNW,298,9.0,14.0,39,0.00,,,0.00,Wunderground v.1.15,2013-04-12 03:26:00,
2013-04-11 20:31:00,47.3,24.8,30.06,WNW,300,7.0,14.0,41,0.00,,,0.00,Wunderground v.1.15,2013-04-12 03:31:00,
2013-04-11 20:36:00,47.0,25.1,30.06,WNW,287,8.0,13.0,42,0.00,,,0.00,Wunderground v.1.15,2013-04-12 03:36:00,
2013-04-11 20:41:00,46.9,25.0,30.06,WNW,294,9.0,13.0,42,0.00,,,0.00,Wunderground v.1.15,2013-04-12 03:41:00,
2013-04-11 20:46:00,46.7,25.4,30.06,WNW,298,8.0,12.0,43,0.00,,,0.00,Wunderground v.1.15,2013-04-12 03:46:00,
2013-04-11 20:51:00,46.3,25.6,30.06,WNW,298,7.0,12.0,44,0.00,,,0.00,Wunderground v.1.15,2013-04-12 03:51:00,
2013-04-11 20:56:00,46.1,25.4,30.06,WNW,302,8.0,12.0,44,0.00,,,0.00,Wunderground v.1.15,2013-04-12 03:56:00,
2013-04-11 21:00:00,46.0,25.3,30.07,WNW,300,11.0,12.0,44,0.00,,,0.00,Wunderground v.1.15,2013-04-12 04:00:00,
2013-04-11 21:01:00,45.9,25.2,30.07,NW,305,8.0,12.0,44,0.00,,,0.00,Wunderground v.1.15,2013-04-12 04:01:00,
2013-04-11 21:02:00,45.9,25.7,30.07,NW,308,13.0,13.0,45,0.00,,,0.00,Wunderground v.1.15,2013-04-12 04:02:00,
2013-04-11 21:06:00,45.8,25.6,30.07,NW,311,12.0,15.0,45,0.00,,,0.00,Wunderground v.1.15,2013-04-12 04:06:00,
2013-04-11 21:11:00,45.8,25.6,30.07,WNW,297,12.0,15.0,45,0.00,,,0.00,Wunderground v.1.15,2013-04-12 04:11:00,
2013-04-11 21:16:00,45.9,25.7,30.07,WNW,294,10.0,14.0,45,0.00,,,0.00,Wunderground v.1.15,2013-04-12 04:16:00,
2013-04-11 21:21:00,46.1,25.4,30.07,WNW,288,13.0,16.0,44,0.00,,,0.00,Wunderground v.1.15,2013-04-12 04:21:00,
2013-04-11 21:26:00,46.2,25.5,30.07,WNW,289,7.0,15.0,44,0.00,,,0.00,Wunderground v.1.15,2013-04-12 04:26:00,
2013-04-11 21:31:00,46.1,25.4,30.07,West,281,13.0,15.0,44,0.00,,,0.00,Wunderground v.1.15,2013-04-12 04:31:00,
2013-04-11 21:36:00,46.0,25.3,30.07,WNW,283,10.0,14.0,44,0.00,,,0.00,Wunderground v.1.15,2013-04-12 04:36:00,
2013-04-11 21:41:00,46.0,25.3,30.07,WNW,288,10.0,14.0,44,0.00,,,0.00,Wunderground v.1.15,2013-04-12 04:41:00,
2013-04-11 21:46:00,45.9,25.7,30.07,West,281,8.0,12.0,45,0.00,,,0.00,Wunderground v.1.15,2013-04-12 04:46:00,
2013-04-11 21:51:00,45.5,25.4,30.07,West,274,8.0,13.0,45,0.00,,,0.00,Wunderground v.1.15,2013-04-12 04:51:00,
2013-04-11 21:56:00,45.7,25.5,30.07,West,279,7.0,13.0,45,0.00,,,0.00,Wunderground v.1.15,2013-04-12 04:56:00,
2013-04-11 22:01:00,45.4,25.3,30.07,WNW,297,7.0,13.0,45,0.00,,,0.00,Wunderground v.1.15,2013-04-12 05:01:00,
2013-04-11 22:02:00,45.3,25.7,30.07,WNW,294,6.0,13.0,46,0.00,,,0.00,Wunderground v.1.15,2013-04-12 05:02:00,
2013-04-11 22:06:00,45.4,25.3,30.07,West,281,9.0,12.0,45,0.00,,,0.00,Wunderground v.1.15,2013-04-12 05:06:00,
2013-04-11 22:11:00,45.2,25.6,30.07,WNW,300,8.0,12.0,46,0.00,,,0.00,Wunderground v.1.15,2013-04-12 05:11:00,
2013-04-11 22:16:00,45.1,25.5,30.07,NW,319,12.0,16.0,46,0.00,,,0.00,Wunderground v.1.15,2013-04-12 05:16:00,
2013-04-11 22:21:00,45.2,25.6,30.07,West,281,12.0,16.0,46,0.00,,,0.00,Wunderground v.1.15,2013-04-12 05:21:00,
2013-04-11 22:26:00,45.2,25.1,30.07,WNW,290,10.0,13.0,45,0.00,,,0.00,Wunderground v.1.15,2013-04-12 05:26:00,
2013-04-11 22:31:00,45.1,25.5,30.06,West,276,12.0,16.0,46,0.00,,,0.00,Wunderground v.1.15,2013-04-12 05:31:00,
2013-04-11 22:36:00,45.1,25.5,30.06,NNW,335,16.0,18.0,46,0.00,,,0.00,Wunderground v.1.15,2013-04-12 05:36:00,
2013-04-11 22:41:00,45.2,25.6,30.06,NNW,344,14.0,19.0,46,0.00,,,0.00,Wunderground v.1.15,2013-04-12 05:41:00,
2013-04-11 22:46:00,45.6,25.5,30.06,NNW,340,18.0,26.0,45,0.00,,,0.00,Wunderground v.1.15,2013-04-12 05:46:00,
2013-04-11 22:51:00,46.0,25.3,30.05,NNW,338,18.0,26.0,44,0.00,,,0.00,Wunderground v.1.15,2013-04-12 05:51:00,
2013-04-11 22:56:00,46.1,25.4,30.05,NNW,329,14.0,25.0,44,0.00,,,0.00,Wunderground v.1.15,2013-04-12 05:56:00,
2013-04-11 23:01:00,45.8,25.1,30.05,NNW,347,22.0,25.0,44,0.00,,,0.00,Wunderground v.1.15,2013-04-12 06:01:00,
2013-04-11 23:06:00,45.7,25.0,30.06,NNW,343,9.0,23.0,44,0.00,,,0.00,Wunderground v.1.15,2013-04-12 06:06:00,
2013-04-11 23:11:00,46.0,25.3,30.06,North,351,13.0,26.0,44,0.00,,,0.00,Wunderground v.1.15,2013-04-12 06:11:00,
2013-04-11 23:16:00,45.6,25.5,30.06,NNW,335,18.0,20.0,45,0.00,,,0.00,Wunderground v.1.15,2013-04-12 06:16:00,
2013-04-11 23:21:00,45.7,25.0,30.06,NNW,340,10.0,23.0,44,0.00,,,0.00,Wunderground v.1.15,2013-04-12 06:21:00,
2013-04-11 23:26:00,45.8,25.1,30.06,NNW,336,10.0,20.0,44,0.00,,,0.00,Wunderground v.1.15,2013-04-12 06:26:00,
2013-04-11 23:31:00,45.6,24.9,30.07,NNW,333,8.0,20.0,44,0.00,,,0.00,Wunderground v.1.15,2013-04-12 06:31:00,
2013-04-11 23:36:00,45.3,24.6,30.07,NW,318,4.0,13.0,44,0.00,,,0.00,Wunderground v.1.15,2013-04-12 06:36:00,
2013-04-11 23:41:00,45.2,25.1,30.07,WNW,288,1.0,13.0,45,0.00,,,0.00,Wunderground v.1.15,2013-04-12 06:41:00,
2013-04-11 23:46:00,45.0,24.9,30.07,WNW,292,8.0,8.0,45,0.00,,,0.00,Wunderground v.1.15,2013-04-12 06:46:00,
2013-04-11 23:51:00,45.1,25.0,30.08,WNW,291,5.0,11.0,45,0.00,,,0.00,Wunderground v.1.15,2013-04-12 06:51:00,
2013-04-11 23:56:00,44.6,25.6,30.08,WNW,294,9.0,15.0,47,0.00,,,0.00,Wunderground v.1.15,2013-04-12 06:56:00,